Time,TemperatureF,DewpointF,PressureIn,WindDirection,WindDirectionDegrees,WindSpeedMPH,WindSpeedGustMPH,Humidity,HourlyPrecipIn,Conditions,Clouds,dailyrainin,SoftwareType,DateUTC
2013-12-16 00:09:00,49.9,46.0,29.47,WNW,290,4.0,11.0,86,0.06,,,0.46,weatherlink.com 1.10,2013-12-16 00:09:00,
2013-12-16 00:24:00,49.5,46.0,29.46,West,271,2.0,11.0,87,0.06,,,0.46,weatherlink.com 1.10,2013-12-16 00:24:00,
2013-12-16 00:39:00,49.4,46.0,29.46,West,263,3.0,11.0,87,0.04,,,0.46,weatherlink.com 1.10,2013-12-16 00:39:00,
2013-12-16 00:54:00,49.6,46.0,29.45,WSW,248,5.0,13.0,86,0.02,,,0.46,weatherlink.com 1.10,2013-12-16 00:54:00,
2013-12-16 01:09:00,49.7,45.0,29.44,WSW,245,5.0,13.0,85,0.00,,,0.00,weatherlink.com 1.10,2013-12-16 01:09:00,
2013-12-16 01:24:00,49.3,45.0,29.44,WSW,249,3.0,8.0,85,0.00,,,0.00,weatherlink.com 1.10,2013-12-16 01:24:00,
2013-12-16 01:39:00,49.1,45.0,29.44,WSW,252,4.0,10.0,84,0.00,,,0.00,weatherlink.com 1.10,2013-12-16 01:39:00,
2013-12-16 01:54:00,49.4,44.0,29.44,SSW,200,6.0,8.0,82,0.00,,,0.00,weatherlink.com 1.10,2013-12-16 01:54:00,
2013-12-16 02:09:00,49.6,44.0,29.44,WSW,238,4.0,11.0,81,0.00,,,0.00,weatherlink.com 1.10,2013-12-16 02:09:00,
2013-12-16 02:24:00,49.1,45.0,29.45,SW,219,1.0,7.0,84,0.03,,,0.03,weatherlink.com 1.10,2013-12-16 02:24:00,
2013-12-16 02:39:00,48.1,44.0,29.44,WSW,253,4.0,11.0,86,0.08,,,0.08,weatherlink.com 1.10,2013-12-16 02:39:00,
2013-12-16 02:54:00,48.2,45.0,29.45,SW,221,6.0,11.0,88,0.09,,,0.09,weatherlink.com 1.10,2013-12-16 02:54:00,
2013-12-16 03:09:00,48.0,44.0,29.45,WSW,246,9.0,12.0,87,0.09,,,0.09,weatherlink.com 1.10,2013-12-16 03:09:00,
2013-12-16 03:24:00,47.1,44.0,29.46,WNW,295,9.0,17.0,88,0.13,,,0.17,weatherlink.com 1.10,2013-12-16 03:24:00,
2013-12-16 03:39:00,46.6,44.0,29.46,SW,219,1.0,11.0,90,0.14,,,0.22,weatherlink.com 1.10,2013-12-16 03:39:00,
2013-12-16 03:54:00,44.3,41.0,29.48,WSW,250,2.0,14.0,88,0.17,,,0.25,weatherlink.com 1.10,2013-12-16 03:54:00,
2013-12-16 04:09:00,43.1,40.0,29.49,WNW,297,5.0,11.0,90,0.18,,,0.28,weatherlink.com 1.10,2013-12-16 04:09:00,
2013-12-16 04:24:00,42.6,40.0,29.50,West,272,10.0,14.0,90,0.12,,,0.30,weatherlink.com 1.10,2013-12-16 04:24:00,
2013-12-16 04:39:00,42.1,40.0,29.50,WSW,255,3.0,14.0,91,0.10,,,0.33,weatherlink.com 1.10,2013-12-16 04:39:00,
2013-12-16 04:54:00,41.6,39.0,29.52,West,260,14.0,15.0,90,0.09,,,0.35,weatherlink.com 1.10,2013-12-16 04:54:00,
2013-12-16 05:09:00,41.6,39.0,29.52,West,276,14.0,16.0,91,0.09,,,0.36,weatherlink.com 1.10,2013-12-16 05:09:00,
2013-12-16 05:24:00,41.3,39.0,29.52,South,191,7.0,11.0,90,0.06,,,0.36,weatherlink.com 1.10,2013-12-16 05:24:00,
2013-12-16 05:40:00,41.4,39.0,29.53,West,278,2.0,9.0,90,0.05,,,0.38,weatherlink.com 1.10,2013-12-16 05:40:00,
2013-12-16 05:55:00,41.3,39.0,29.54,West,259,2.0,11.0,90,0.05,,,0.40,weatherlink.com 1.10,2013-12-16 05:55:00,
2013-12-16 06:10:00,41.3,39.0,29.54,WSW,245,3.0,11.0,90,0.05,,,0.41,weatherlink.com 1.10,2013-12-16 06:10:00,
2013-12-16 06:25:00,41.5,39.0,29.54,WSW,251,6.0,12.0,90,0.05,,,0.41,weatherlink.com 1.10,2013-12-16 06:25:00,
2013-12-16 06:40:00,41.7,39.0,29.54,SW,224,9.0,12.0,89,0.04,,,0.42,weatherlink.com 1.10,2013-12-16 06:40:00,
2013-12-16 06:55:00,42.0,39.0,29.55,WSW,246,4.0,11.0,89,0.02,,,0.42,weatherlink.com 1.10,2013-12-16 06:55:00,
2013-12-16 07:10:00,41.9,39.0,29.55,WSW,255,7.0,10.0,89,0.01,,,0.42,weatherlink.com 1.10,2013-12-16 07:10:00,
2013-12-16 07:25:00,42.1,39.0,29.55,WSW,256,2.0,13.0,89,0.01,,,0.42,weatherlink.com 1.10,2013-12-16 07:25:00,
2013-12-16 07:40:00,42.1,39.0,29.57,West,260,4.0,10.0,89,0.00,,,0.42,weatherlink.com 1.10,2013-12-16 07:40:00,
2013-12-16 07:55:00,42.2,39.0,29.58,WSW,253,6.0,12.0,88,0.00,,,0.42,weatherlink.com 1.10,2013-12-16 07:55:00,
2013-12-16 08:10:00,42.2,39.0,29.59,WSW,257,2.0,10.0,88,0.00,,,0.42,weatherlink.com 1.10,2013-12-16 08:10:00,
2013-12-16 08:26:00,42.2,39.0,29.61,WSW,255,7.0,8.0,88,0.00,,,0.42,weatherlink.com 1.10,2013-12-16 08:26:00,
2013-12-16 08:40:00,42.1,39.0,29.62,WSW,257,4.0,9.0,88,0.00,,,0.42,weatherlink.com 1.10,2013-12-16 08:40:00,
2013-12-16 08:55:00,42.3,39.0,29.62,WSW,250,5.0,10.0,88,0.00,,,0.42,weatherlink.com 1.10,2013-12-16 08:55:00,
2013-12-16 09:10:00,42.4,39.0,29.63,WSW,249,2.0,9.0,87,0.00,,,0.42,weatherlink.com 1.10,2013-12-16 09:10:00,
2013-12-16 09:25:00,42.3,39.0,29.65,WSW,246,4.0,10.0,87,0.00,,,0.42,weatherlink.com 1.10,2013-12-16 09:25:00,
2013-12-16 09:40:00,42.2,39.0,29.65,WNW,293,7.0,10.0,87,0.00,,,0.42,weatherlink.com 1.10,2013-12-16 09:40:00,
2013-12-16 09:55:00,42.2,38.0,29.66,West,267,2.0,7.0,86,0.00,,,0.42,weatherlink.com 1.10,2013-12-16 09:55:00,
2013-12-16 10:10:00,42.3,38.0,29.67,SW,221,4.0,11.0,85,0.00,,,0.42,weatherlink.com 1.10,2013-12-16 10:10:00,
2013-12-16 10:25:00,42.6,38.0,29.68,West,263,2.0,11.0,85,0.00,,,0.42,weatherlink.com 1.10,2013-12-16 10:25:00,
2013-12-16 10:41:00,42.9,38.0,29.69,SSW,208,6.0,12.0,84,0.00,,,0.42,weatherlink.com 1.10,2013-12-16 10:41:00,
2013-12-16 10:56:00,43.0,39.0,29.69,WNW,301,5.0,11.0,84,0.00,,,0.42,weatherlink.com 1.10,2013-12-16 10:56:00,
2013-12-16 11:11:00,43.5,38.0,29.70,SSE,165,1.0,8.0,82,0.00,,,0.42,weatherlink.com 1.10,2013-12-16 11:11:00,
2013-12-16 11:26:00,43.8,38.0,29.70,WSW,257,11.0,11.0,81,0.00,,,0.42,weatherlink.com 1.10,2013-12-16 11:26:00,
2013-12-16 11:41:00,44.1,39.0,29.71,WSW,245,3.0,12.0,81,0.00,,,0.42,weatherlink.com 1.10,2013-12-16 11:41:00,
2013-12-16 11:56:00,44.1,38.0,29.71,WSW,250,5.0,15.0,79,0.00,,,0.42,weatherlink.com 1.10,2013-12-16 11:56:00,
2013-12-16 12:11:00,44.4,39.0,29.72,WNW,285,8.0,12.0,80,0.00,,,0.42,weatherlink.com 1.10,2013-12-16 12:11:00,
2013-12-16 12:26:00,44.3,39.0,29.72,WSW,245,3.0,10.0,80,0.00,,,0.42,weatherlink.com 1.10,2013-12-16 12:26:00,
2013-12-16 12:41:00,44.4,39.0,29.72,West,260,4.0,9.0,80,0.00,,,0.42,weatherlink.com 1.10,2013-12-16 12:41:00,
2013-12-16 12:56:00,44.4,39.0,29.73,West,262,5.0,11.0,80,0.00,,,0.42,weatherlink.com 1.10,2013-12-16 12:56:00,
2013-12-16 13:11:00,44.3,38.0,29.72,West,266,3.0,12.0,79,0.00,,,0.42,weatherlink.com 1.10,2013-12-16 13:11:00,
2013-12-16 13:26:00,44.4,38.0,29.73,West,273,2.0,10.0,79,0.00,,,0.42,weatherlink.com 1.10,2013-12-16 13:26:00,
2013-12-16 13:41:00,44.3,38.0,29.73,West,263,8.0,15.0,78,0.00,,,0.42,weatherlink.com 1.10,2013-12-16 13:41:00,
2013-12-16 13:56:00,44.3,38.0,29.73,WSW,255,9.0,13.0,77,0.00,,,0.42,weatherlink.com 1.10,2013-12-16 13:56:00,
2013-12-16 14:11:00,44.2,37.0,29.74,West,259,1.0,11.0,76,0.00,,,0.42,weatherlink.com 1.10,2013-12-16 14:11:00,
2013-12-16 14:26:00,44.1,37.0,29.74,NNE,20,3.0,14.0,76,0.00,,,0.42,weatherlink.com 1.10,2013-12-16 14:26:00,
2013-12-16 14:41:00,44.0,37.0,29.74,WSW,253,8.0,14.0,75,0.00,,,0.42,weatherlink.com 1.10,2013-12-16 14:41:00,
2013-12-16 14:56:00,43.9,37.0,29.75,West,260,6.0,12.0,76,0.00,,,0.42,weatherlink.com 1.10,2013-12-16 14:56:00,
2013-12-16 15:11:00,43.7,37.0,29.75,NNW,340,6.0,13.0,76,0.00,,,0.42,weatherlink.com 1.10,2013-12-16 15:11:00,
2013-12-16 15:26:00,43.5,37.0,29.75,SW,231,3.0,11.0,77,0.00,,,0.42,weatherlink.com 1.10,2013-12-16 15:26:00,
2013-12-16 15:41:00,43.5,37.0,29.76,West,278,5.0,14.0,77,0.00,,,0.42,weatherlink.com 1.10,2013-12-16 15:41:00,
2013-12-16 15:56:00,43.3,37.0,29.76,WNW,293,2.0,13.0,77,0.00,,,0.42,weatherlink.com 1.10,2013-12-16 15:56:00,
2013-12-16 16:11:00,43.2,36.0,29.77,West,260,1.0,13.0,77,0.00,,,0.42,weatherlink.com 1.10,2013-12-16 16:11:00,
2013-12-16 16:26:00,43.2,36.0,29.78,WSW,246,2.0,11.0,77,0.00,,,0.42,weatherlink.com 1.10,2013-12-16 16:26:00,
2013-12-16 16:41:00,43.1,36.0,29.78,WNW,289,3.0,11.0,77,0.00,,,0.42,weatherlink.com 1.10,2013-12-16 16:41:00,
2013-12-16 16:56:00,43.0,37.0,29.79,SW,219,1.0,10.0,78,0.00,,,0.42,weatherlink.com 1.10,2013-12-16 16:56:00,
2013-12-16 17:12:00,43.0,37.0,29.80,West,271,1.0,11.0,78,0.00,,,0.42,weatherlink.com 1.10,2013-12-16 17:12:00,
2013-12-16 17:26:00,42.8,36.0,29.81,West,274,3.0,10.0,78,0.00,,,0.42,weatherlink.com 1.10,2013-12-16 17:26:00,
2013-12-16 17:41:00,42.9,36.0,29.82,West,273,2.0,8.0,78,0.00,,,0.42,weatherlink.com 1.10,2013-12-16 17:41:00,
2013-12-16 17:56:00,42.9,36.0,29.82,WSW,246,3.0,10.0,78,0.00,,,0.42,weatherlink.com 1.10,2013-12-16 17:56:00,
2013-12-16 18:11:00,42.7,37.0,29.82,West,269,3.0,7.0,79,0.00,,,0.42,weatherlink.com 1.10,2013-12-16 18:11:00,
2013-12-16 18:26:00,42.8,36.0,29.83,WSW,238,2.0,7.0,78,0.00,,,0.42,weatherlink.com 1.10,2013-12-16 18:26:00,
2013-12-16 18:41:00,42.9,36.0,29.84,WSW,256,7.0,9.0,77,0.00,,,0.42,weatherlink.com 1.10,2013-12-16 18:41:00,
2013-12-16 18:56:00,43.1,36.0,29.84,West,280,7.0,12.0,77,0.00,,,0.42,weatherlink.com 1.10,2013-12-16 18:56:00,
2013-12-16 19:11:00,43.2,36.0,29.84,NW,304,4.0,12.0,76,0.00,,,0.42,weatherlink.com 1.10,2013-12-16 19:11:00,
2013-12-16 19:26:00,43.2,36.0,29.85,SW,235,3.0,13.0,76,0.00,,,0.42,weatherlink.com 1.10,2013-12-16 19:26:00,
2013-12-16 19:41:00,43.1,36.0,29.86,WNW,284,4.0,16.0,76,0.00,,,0.42,weatherlink.com 1.10,2013-12-16 19:41:00,
2013-12-16 19:56:00,42.9,36.0,29.86,West,262,5.0,11.0,76,0.00,,,0.42,weatherlink.com 1.10,2013-12-16 19:56:00,
2013-12-16 20:12:00,42.9,36.0,29.86,West,274,5.0,11.0,77,0.00,,,0.42,weatherlink.com 1.10,2013-12-16 20:12:00,
2013-12-16 20:27:00,42.8,36.0,29.86,WSW,243,4.0,12.0,77,0.00,,,0.42,weatherlink.com 1.10,2013-12-16 20:27:00,
2013-12-16 20:42:00,42.8,36.0,29.87,West,260,6.0,11.0,77,0.00,,,0.42,weatherlink.com 1.10,2013-12-16 20:42:00,
2013-12-16 20:57:00,42.8,36.0,29.87,WSW,248,4.0,11.0,77,0.00,,,0.42,weatherlink.com 1.10,2013-12-16 20:57:00,
2013-12-16 21:12:00,42.5,36.0,29.87,WSW,256,5.0,12.0,78,0.00,,,0.42,weatherlink.com 1.10,2013-12-16 21:12:00,
2013-12-16 21:27:00,42.4,36.0,29.87,WNW,283,4.0,15.0,78,0.00,,,0.42,weatherlink.com 1.10,2013-12-16 21:27:00,
2013-12-16 21:42:00,42.4,36.0,29.88,West,263,4.0,13.0,78,0.00,,,0.42,weatherlink.com 1.10,2013-12-16 21:42:00,
2013-12-16 21:57:00,42.1,36.0,29.88,WSW,240,5.0,13.0,78,0.00,,,0.42,weatherlink.com 1.10,2013-12-16 21:57:00,
2013-12-16 22:12:00,42.0,36.0,29.89,WNW,295,2.0,11.0,78,0.00,,,0.42,weatherlink.com 1.10,2013-12-16 22:12:00,
2013-12-16 22:27:00,41.7,36.0,29.89,WSW,253,4.0,11.0,79,0.00,,,0.42,weatherlink.com 1.10,2013-12-16 22:27:00,
2013-12-16 22:42:00,41.5,36.0,29.90,WSW,242,1.0,11.0,80,0.00,,,0.42,weatherlink.com 1.10,2013-12-16 22:42:00,
2013-12-16 22:57:00,41.3,36.0,29.90,SW,221,2.0,7.0,80,0.00,,,0.42,weatherlink.com 1.10,2013-12-16 22:57:00,
2013-12-16 23:12:00,41.1,36.0,29.91,SW,233,6.0,10.0,81,0.00,,,0.42,weatherlink.com 1.10,2013-12-16 23:12:00,
2013-12-16 23:27:00,40.9,36.0,29.91,West,269,3.0,8.0,81,0.00,,,0.42,weatherlink.com 1.10,2013-12-16 23:27:00,
2013-12-16 23:42:00,41.0,36.0,29.92,WSW,253,8.0,9.0,81,0.00,,,0.42,weatherlink.com 1.10,2013-12-16 23:42:00,
2013-12-16 23:57:00,41.0,36.0,29.92,WSW,248,5.0,12.0,81,0.00,,,0.42,weatherlink.com 1.10,2013-12-16 23:57:00,